* Astronomy

Members Login
Username 
 
Password 
    Remember Me  
Post Info TOPIC: Asteroid 2011 BZ59


L

Posts: 131433
Date:
Asteroid 2011 BZ59
Permalink  
 


Orbital elements:
2011 BZ59 Earth MOID = 0.1068 AU
Epoch 2011 Feb. 8.0 TT = JDT 2455600.5 MPC
M 7.42873 (2000.0) P Q
n 0.39322329 Peri. 323.27255 -0.53560198 -0.84442907
a 1.8451991 Node 159.10821 +0.78026329 -0.49864569
e 0.4091468 Incl. 1.34506 +0.32298563 -0.19568347
P 2.51 H 25.4 G 0.15 U 5

MPEC 2011 - D21


__________________
Page 1 of 1  sorted by
 
Quick Reply

Please log in to post quick replies.



Create your own FREE Forum
Report Abuse
Powered by ActiveBoard